Location: Beekmeers
(50.8953°N, 3.6968°E)
Time: 06:10:50
(UTC+00:00)

COBE Rocket - Pass Details

Date: 09 August 2024
Orbit: 676 x 777 km, 97.1° (Epoch: 14 September)

Event Time Altitude Azimuth Distance (km) Brightness Sun altitude
Rises 00:39:35 0° 14° (NNE) 3,076 8.6 -22.5°
Reaches altitude 10° 00:41:52 10° 18° (NNE) 2,144 7.5 -22.4°
Maximum altitude 00:46:32 66° 100° (E) 746 3.9 -22.2°
Enters shadow 00:47:22 54° 152° (SSE) 827 3.8 -22.2°
